Idaho Cnty AP, Grangeville, I, ID

9:00 AM PDT on October 17, 2019 (GMT -0700)
Idaho Cnty AP, Grangeville, I

Weather History for KGIC - September, 2019

Change the Weather History Date:

Friday, September 20, 2019

  Actual Average (WUND) Record (WUND)
Temperature  
Mean Temperature 52 °F -  
Max Temperature 57 °F - - (-1)
Min Temperature 46 °F - - (-1)
Degree Days  
Heating Degree Days 14    
Growing Degree Days 2 (Base 50)    
Moisture  
Dew Point 46 °F    
Average Humidity 84    
Maximum Humidity 100    
Minimum Humidity 63    
Precipitation  
Precipitation 0.02 in - - ()
Sea Level Pressure  
Sea Level Pressure 30.03 in    
Wind  
Wind Speed 2 mph ()    
Max Wind Speed 10 mph    
Max Gust Speed 17 mph    
Visibility 9.9 miles    
Events      
Averages and records for this station are not official NWS values.
T = Trace of Precipitation, MM = Missing Value Source: Averaged Metar Reports

Daily Weather History Graph

Daily Weather History Graph

Search for Another Location

Airport or City:

Astronomy

Sep. 20, 2019 Rise Set
Actual Time 6:28 AM PDT 6:46 PM PDT
Civil Twilight 5:58 AM PDT 7:16 PM PDT
Nautical Twilight 5:23 AM PDT 7:51 PM PDT
Astronomical Twilight 4:47 AM PDT 8:27 PM PDT
Moon 10:19 PM PDT (9/20) 12:56 PM PDT (9/20)
Length of Visible Light 13h 17m
Length of Day
12h 17m
Waning Gibbous, 64% of the Moon is Illuminated
Sep 20
Waning Gibbous
Sep 21
Last Quarter
Sep 28
New
Oct 5
First Quarter
Oct 13
Full

Hourly Weather History & Observations

Time (PDT) Temp. Windchill Dew Point Humidity Pressure Visibility Wind Dir Wind Speed Gust Speed Precip Events Conditions
12:15 AM 50.0 °F - 44.6 °F 82% 30.00 in 10.0 mi SW 4.6 mph - N/A   Overcast
12:35 AM 50.0 °F - 44.6 °F 82% 30.00 in 10.0 mi SW 3.5 mph - N/A   Overcast
12:55 AM 51.8 °F - 44.6 °F 76% 30.01 in 10.0 mi Calm Calm - N/A   Overcast
1:15 AM 50.0 °F - 44.6 °F 82% 30.00 in 10.0 mi Calm Calm - N/A   Overcast
1:35 AM 51.8 °F - 44.6 °F 76% 30.00 in 10.0 mi Calm Calm - N/A   Overcast
1:55 AM 50.0 °F - 44.6 °F 82% 30.00 in 10.0 mi Calm Calm - N/A   Overcast
2:15 AM 50.0 °F - 44.6 °F 82% 30.00 in 10.0 mi Calm Calm - N/A   Overcast
2:35 AM 50.0 °F - 44.6 °F 82% 30.00 in 10.0 mi SE 3.5 mph - N/A   Overcast
2:55 AM 48.2 °F - 44.6 °F 87% 29.99 in 10.0 mi ESE 3.5 mph - N/A   Overcast
3:15 AM 50.0 °F - 44.6 °F 82% 29.99 in 10.0 mi Calm Calm - N/A   Overcast
3:35 AM 48.2 °F - 44.6 °F 87% 29.99 in 10.0 mi ESE 3.5 mph - N/A   Overcast
3:55 AM 48.2 °F - 44.6 °F 87% 30.00 in 10.0 mi Calm Calm - N/A   Overcast
4:15 AM 46.4 °F - 44.6 °F 93% 30.00 in 10.0 mi Calm Calm - N/A   Overcast
4:35 AM 46.4 °F - 44.6 °F 93% 30.00 in 10.0 mi Calm Calm - N/A   Mostly Cloudy
4:55 AM 46.4 °F - 44.6 °F 93% 30.00 in 10.0 mi Calm Calm - N/A   Overcast
5:15 AM 46.4 °F - 44.6 °F 93% 30.00 in 10.0 mi Calm Calm - N/A   Overcast
5:35 AM 46.4 °F - 44.6 °F 93% 30.00 in 10.0 mi Calm Calm - N/A   Overcast
5:55 AM 46.4 °F 44.3 °F 46.4 °F 100% 30.00 in 10.0 mi WSW 4.6 mph - N/A   Overcast
6:15 AM 46.4 °F 45.2 °F 46.4 °F 100% 30.00 in 10.0 mi West 3.5 mph - N/A   Overcast
6:35 AM 46.4 °F - 46.4 °F 100% 30.00 in 10.0 mi Calm Calm - N/A   Overcast
6:55 AM 46.4 °F - 46.4 °F 100% 30.00 in 10.0 mi Calm Calm - N/A   Overcast
7:15 AM 46.4 °F 44.3 °F 46.4 °F 100% 30.00 in 10.0 mi WSW 4.6 mph - N/A   Overcast
7:35 AM 48.2 °F - 46.4 °F 93% 30.00 in 10.0 mi WSW 3.5 mph - N/A   Overcast
7:55 AM 48.2 °F - 46.4 °F 93% 30.01 in 10.0 mi Calm Calm - N/A   Overcast
8:15 AM 50.0 °F - 46.4 °F 87% 30.02 in 10.0 mi Calm Calm - N/A   Overcast
8:35 AM 50.0 °F - 46.4 °F 87% 30.01 in 10.0 mi Calm Calm - N/A   Overcast
8:55 AM 51.8 °F - 46.4 °F 82% 30.01 in 10.0 mi Calm Calm - N/A   Overcast
9:15 AM 53.6 °F - 46.4 °F 77% 30.00 in 10.0 mi Calm Calm - N/A   Overcast
9:35 AM 53.6 °F - 44.6 °F 72% 30.00 in 10.0 mi Calm Calm - N/A   Overcast
9:55 AM 55.4 °F - 44.6 °F 67% 30.00 in 10.0 mi Calm Calm - N/A   Overcast
10:15 AM 53.6 °F - 42.8 °F 67% 30.02 in 10.0 mi Calm Calm - N/A   Overcast
10:35 AM 55.4 °F - 44.6 °F 67% 30.01 in 10.0 mi North 4.6 mph - N/A   Overcast
10:55 AM 55.4 °F - 46.4 °F 72% 30.02 in 10.0 mi ENE 6.9 mph - N/A   Overcast
11:15 AM 53.6 °F - 46.4 °F 77% 30.02 in 10.0 mi NNE 4.6 mph - N/A   Overcast
11:35 AM 53.6 °F - 46.4 °F 77% 30.02 in 10.0 mi ENE 6.9 mph - N/A   Overcast
11:55 AM 53.6 °F - 44.6 °F 72% 30.02 in 10.0 mi NE 6.9 mph - N/A   Overcast
12:15 PM 55.4 °F - 44.6 °F 67% 30.02 in 10.0 mi ENE 10.4 mph 17.3 mph N/A   Overcast
12:35 PM 55.4 °F - 44.6 °F 67% 30.02 in 10.0 mi East 5.8 mph - N/A   Overcast
12:55 PM 55.4 °F - 44.6 °F 67% 30.03 in 10.0 mi ENE 8.1 mph 16.1 mph N/A   Overcast
1:15 PM 53.6 °F - 44.6 °F 72% 30.03 in 10.0 mi ENE 6.9 mph 16.1 mph N/A   Overcast
1:35 PM 53.6 °F - 44.6 °F 72% 30.03 in 10.0 mi ENE 8.1 mph - N/A   Overcast
1:55 PM 51.8 °F - 46.4 °F 82% 30.04 in 4.0 mi East 8.1 mph - 0.01 in   Overcast
2:15 PM 53.6 °F - 48.2 °F 82% 30.04 in 10.0 mi East 5.8 mph - N/A   Overcast
2:35 PM 53.6 °F - 46.4 °F 77% 30.04 in 10.0 mi East 4.6 mph - N/A   Overcast
2:55 PM 55.4 °F - 44.6 °F 67% 30.04 in 10.0 mi East 3.5 mph - N/A   Overcast
3:15 PM 57.2 °F - 46.4 °F 67% 30.04 in 10.0 mi Calm Calm - N/A   Overcast
3:35 PM 55.4 °F - 44.6 °F 67% 30.04 in 10.0 mi NNE 5.8 mph - N/A   Overcast
3:55 PM 55.4 °F - 44.6 °F 67% 30.04 in 10.0 mi North 3.5 mph - N/A   Overcast
4:15 PM 55.4 °F - 44.6 °F 67% 30.05 in 10.0 mi North 4.6 mph - N/A   Overcast
4:35 PM 55.4 °F - 44.6 °F 67% 30.05 in 10.0 mi North 6.9 mph - N/A   Overcast
4:55 PM 55.4 °F - 42.8 °F 63% 30.05 in 10.0 mi North 6.9 mph - N/A   Overcast
5:15 PM 53.6 °F - 44.6 °F 72% 30.05 in 10.0 mi North 10.4 mph - N/A   Overcast
5:35 PM 53.6 °F - 44.6 °F 72% 30.06 in 10.0 mi North 10.4 mph - N/A   Overcast
5:55 PM 53.6 °F - 46.4 °F 77% 30.06 in 10.0 mi NNE 5.8 mph - N/A   Overcast
6:15 PM 53.6 °F - 46.4 °F 77% 30.06 in 10.0 mi NE 3.5 mph - N/A   Overcast
6:35 PM 51.8 °F - 46.4 °F 82% 30.07 in 10.0 mi Calm Calm - N/A   Overcast
6:55 PM 51.8 °F - 46.4 °F 82% 30.07 in 10.0 mi Calm Calm - N/A   Overcast
7:15 PM 51.8 °F - 48.2 °F 88% 30.08 in 10.0 mi Calm Calm - N/A   Overcast
7:35 PM 51.8 °F - 48.2 °F 88% 30.08 in 7.0 mi ENE 3.5 mph - 0.01 in   Overcast
7:55 PM 50.0 °F - 50.0 °F 100% 30.08 in 10.0 mi ESE 4.6 mph - 0.01 in   Overcast
8:15 PM 50.0 °F - 50.0 °F 100% 30.08 in 10.0 mi SE 3.5 mph - N/A   Mostly Cloudy
8:35 PM 48.2 °F - 48.2 °F 100% 30.09 in 10.0 mi SE 3.5 mph - N/A   Mostly Cloudy
8:55 PM 50.0 °F - 50.0 °F 100% 30.09 in 10.0 mi Calm Calm - N/A   Overcast
9:15 PM 48.2 °F - 48.2 °F 100% 30.10 in 10.0 mi WSW 3.5 mph - N/A   Overcast
9:35 PM 48.2 °F - 48.2 °F 100% 30.10 in 10.0 mi WSW 3.5 mph - N/A   Overcast
9:55 PM 48.2 °F - 48.2 °F 100% 30.10 in 10.0 mi WSW 3.5 mph - N/A   Overcast
10:15 PM 50.0 °F - 50.0 °F 100% 30.10 in 10.0 mi Calm Calm - N/A   Overcast
10:35 PM 50.0 °F - 48.2 °F 94% 30.10 in 10.0 mi Calm Calm - N/A   Overcast
10:55 PM 50.0 °F - 48.2 °F 94% 30.10 in 10.0 mi SW 3.5 mph - N/A   Overcast
11:15 PM 50.0 °F - 48.2 °F 94% 30.09 in 10.0 mi West 3.5 mph - N/A   Overcast
11:35 PM 50.0 °F - 50.0 °F 100% 30.09 in 10.0 mi Calm Calm - N/A   Overcast
11:55 PM 50.0 °F - 50.0 °F 100% 30.09 in 10.0 mi Calm Calm - N/A   Overcast